This demonstration page uses our WeatherBlox Daily Observations layout. Learn more.

Left ArrowRight Arrow

Hourly Observations for July 25, 2016

Temp ( °F °C ) Dew Point ( °F °C ) Humidity (%) Winds ( mph kmh ) Pressure ( in mb ) Visibility ( mi km ) Precip ( " mm )
12:15 am 00:15 Mostly Cloudy 82 28 75 24 79 79 N N/A 30.00 1016 10 16 N/A
12:35 am 00:35 Partly Cloudy 81 27 75 24 84 84 N N/A 30.00 1016 10 16 N/A
12:55 am 00:55 Clear 81 27 73 23 79 79 N 6 9 30.00 1016 10 16 N/A
1:15 am 01:15 Clear 81 27 73 23 79 79 N 3 6 29.97 1015 10 16 N/A
1:35 am 01:35 Clear 79 26 73 23 84 84 NNW 3 6 29.97 1015 10 16 N/A
1:55 am 01:55 Clear 79 26 73 23 84 84 N N/A 29.97 1015 10 16 N/A
2:15 am 02:15 Clear 81 27 73 23 79 79 NE 3 6 29.97 1015 10 16 N/A
2:35 am 02:35 Clear 81 27 73 23 79 79 NE 5 7 29.97 1015 10 16 N/A
2:55 am 02:55 Clear 81 27 73 23 79 79 N N/A 29.97 1015 10 16 N/A
3:15 am 03:15 Clear 79 26 73 23 84 84 SSW 7 11 29.97 1015 10 16 N/A
3:35 am 03:35 Clear 77 25 73 23 89 89 N N/A 30.00 1016 10 16 N/A
3:55 am 03:55 Clear 77 25 73 23 89 89 W 3 6 29.97 1015 10 16 N/A
4:15 am 04:15 Clear 77 25 73 23 89 89 WSW 5 7 29.97 1015 10 16 N/A
4:35 am 04:35 Clear 77 25 75 24 94 94 N N/A 29.97 1015 10 16 N/A
4:55 am 04:55 Clear 77 25 75 24 94 94 W 5 7 29.97 1015 10 16 N/A
5:15 am 05:15 Clear 77 25 75 24 94 94 W 5 7 29.97 1015 10 16 N/A
5:35 am 05:35 Clear 77 25 75 24 94 94 W 12 19 29.97 1015 10 16 N/A
5:55 am 05:55 Clear 77 25 73 23 89 89 N N/A 29.97 1015 10 16 N/A
6:15 am 06:15 Sunny 77 25 73 23 89 89 NW 3 6 29.97 1015 10 16 N/A
6:35 am 06:35 Sunny 79 26 73 23 84 84 N N/A 30.00 1016 10 16 N/A
6:55 am 06:55 Sunny 79 26 75 24 89 89 SSW 8 13 30.00 1016 10 16 N/A
7:15 am 07:15 Sunny 79 26 75 24 89 89 SSW 12 19 30.00 1016 10 16 N/A
7:35 am 07:35 Sunny 81 27 75 24 84 84 N N/A 30.00 1016 10 16 N/A
7:55 am 07:55 Sunny 81 27 75 24 84 84 N N/A 30.00 1016 10 16 N/A
8:15 am 08:15 Sunny 82 28 73 23 74 74 N N/A 30.00 1016 10 16 N/A
8:35 am 08:35 Sunny 84 29 77 25 79 79 SSW 3 6 30.00 1016 10 16 N/A
8:55 am 08:55 Sunny 86 30 77 25 75 75 S 3 6 29.94 1014 10 16 N/A
9:15 am 09:15 Sunny 86 30 77 25 75 75 N N/A 29.94 1014 10 16 N/A
9:35 am 09:35 Sunny 90 32 77 25 67 67 W 5 7 29.94 1014 10 16 N/A
9:55 am 09:55 Sunny 90 32 77 25 67 67 WSW 3 6 29.94 1014 10 16 N/A
10:15 am 10:15 Sunny 91 33 77 25 63 63 WSW 3 6 29.94 1014 10 16 N/A
10:35 am 10:35 Sunny 91 33 77 25 63 63 W 3 6 29.97 1015 10 16 N/A
10:55 am 10:55 Sunny 93 34 77 25 59 59 SW 6 9 29.94 1014 10 16 N/A
11:15 am 11:15 Sunny 95 35 77 25 56 56 WNW 5 7 29.94 1014 10 16 N/A
11:35 am 11:35 Sunny 95 35 77 25 56 56 W 6 9 29.94 1014 10 16 N/A
11:55 am 11:55 Sunny 97 36 77 25 53 53 WSW 6 9 29.94 1014 10 16 N/A
12:15 pm 12:15 Sunny 97 36 79 26 56 56 W 3 6 29.94 1014 10 16 N/A
12:35 pm 12:35 Sunny 97 36 77 25 53 53 WNW 6 9 29.94 1014 10 16 N/A
12:55 pm 12:55 Partly Cloudy 97 36 77 25 53 53 W 6 9 29.91 1013 10 16 N/A
1:15 pm 13:15 Partly Cloudy 99 37 75 24 47 47 WSW 6 9 29.91 1013 10 16 N/A
1:35 pm 13:35 Partly Cloudy 99 37 73 23 44 44 SW 7 11 29.91 1013 10 16 N/A
1:55 pm 13:55 Sunny 99 37 73 23 44 44 SSW 8 13 29.91 1013 10 16 N/A
2:15 pm 14:15 Sunny 99 37 75 24 47 47 SSW 10 17 29.88 1012 10 16 N/A
2:35 pm 14:35 Sunny 100 38 75 24 45 45 S 12 19 29.88 1012 10 16 N/A
2:55 pm 14:55 Sunny 100 38 73 23 42 42 S 12 19 29.88 1012 10 16 N/A
3:15 pm 15:15 Sunny 100 38 73 23 42 42 SSW 12 19 29.85 1011 10 16 N/A
3:35 pm 15:35 Sunny 100 38 73 23 42 42 SSW 12 19 29.85 1011 10 16 N/A
3:55 pm 15:55 Sunny 99 37 72 22 42 42 WSW 9 15 29.85 1011 10 16 N/A
4:15 pm 16:15 Sunny 97 36 72 22 44 44 SW 8 13 29.85 1011 10 16 N/A
4:35 pm 16:35 Sunny 99 37 73 23 44 44 SSW 8 13 29.83 1010 10 16 N/A
4:55 pm 16:55 Partly Cloudy 97 36 73 23 47 47 WSW 7 11 29.85 1011 10 16 N/A
5:15 pm 17:15 Partly Cloudy with Nearby Thunderstorms 95 35 73 23 50 50 WSW 3 6 29.85 1011 10 16 N/A
5:35 pm 17:35 Partly Cloudy with Thunderstorms 93 34 75 24 56 56 W 25 41 29.88 1012 10 16 N/A
5:55 pm 17:55 Cloudy with Thunderstorms 79 26 75 24 89 89 WSW 15 24 29.91 1013 4 6 N/A
6:15 pm 18:15 Partly Cloudy 81 27 79 26 94 94 SW 7 11 29.88 1012 10 16 N/A
6:35 pm 18:35 Sunny 84 29 77 25 79 79 W 7 11 29.88 1012 10 16 N/A
6:55 pm 18:55 Sunny 86 30 77 25 75 75 SW 6 9 29.85 1011 10 16 N/A
7:15 pm 19:15 Sunny 84 29 77 25 79 79 WSW 5 7 29.88 1012 10 16 N/A
7:35 pm 19:35 Sunny 82 28 77 25 84 84 WSW 7 11 29.88 1012 10 16 N/A
7:55 pm 19:55 Sunny 82 28 77 25 84 84 WSW 7 11 29.88 1012 10 16 N/A
8:15 pm 20:15 Sunny 81 27 77 25 89 89 SW 7 11 29.88 1012 10 16 N/A
8:35 pm 20:35 Clear 81 27 77 25 89 89 WSW 3 6 29.91 1013 10 16 N/A
8:55 pm 20:55 Clear 81 27 77 25 89 89 W 3 6 29.91 1013 10 16 N/A
9:15 pm 21:15 Partly Cloudy 82 28 77 25 84 84 WSW 6 9 29.91 1013 10 16 N/A
9:35 pm 21:35 Mostly Cloudy 81 27 77 25 89 89 W 3 6 29.91 1013 10 16 N/A
9:55 pm 21:55 Mostly Cloudy 82 28 77 25 84 84 WNW 3 6 29.94 1014 10 16 N/A
10:15 pm 22:15 Partly Cloudy 82 28 75 24 79 79 WNW 8 13 29.94 1014 10 16 N/A
10:35 pm 22:35 Clear 82 28 75 24 79 79 WNW 9 15 29.94 1014 10 16 N/A
10:55 pm 22:55 Clear 82 28 73 23 74 74 NW 9 15 29.94 1014 10 16 N/A
11:15 pm 23:15 Clear 82 28 73 23 74 74 N N/A 29.94 1014 10 16 N/A
11:35 pm 23:35 Clear 81 27 75 24 84 84 N N/A 29.94 1014 10 16 N/A
11:55 pm 23:55 Clear 82 28 73 23 74 74 WNW 6 9 29.94 1014 10 16 N/A

Powered by AerisWeather